Probability
0 0 0 0 0 0 0 0 0 0 0 0 0 1 2 4 5 6 7 8 7 8 11 14 14 10 5 4 5 4 3 4 5 6 6 5 4 6 6 6 6 5 4 3
0 0 0 0 0 0 0 0 0 0 0 0 0 0 2 3 4 6 7 8 7 9 12 15 15 11 7 6 6 6 5 5 5 6 5 4 4 4 5 5 5 4 3 2
0 0 0 0 0 0 0 0 0 0 0 0 0 0 1 2 4 5 7 7 7 10 13 14 14 14 11 9 9 9 9 9 7 5 4 4 3 3 4 5 5 3 2 1
0 0 0 0 0 0 0 0 0 0 0 0 1 1 1 1 3 5 6 6 7 10 11 11 12 15 14 12 12 12 12 11 8 5 5 5 5 5 5 5 5 4 3 3
0 0 0 0 0 0 0 0 0 0 0 0 1 1 1 0 2 4 6 6 7 9 10 9 10 12 13 14 15 16 16 14 10 7 7 8 8 7 6 5 4 4 5 5
0 0 0 0 0 0 1 0 0 1 0 0 0 0 0 0 1 3 4 6 8 11 12 11 10 11 11 15 19 20 19 17 13 11 11 12 12 11 8 6 5 6 5 5
0 0 0 0 0 0 0 0 0 0 0 0 0 0 0 1 2 3 4 6 10 14 14 13 13 13 13 18 23 23 21 19 17 16 15 14 14 13 9 7 6 6 5 4
0 0 0 0 0 0 0 0 0 0 0 0 0 0 0 1 3 5 6 8 11 15 16 15 14 14 17 22 25 25 24 22 20 18 15 14 14 13 9 6 5 5 5 5
0 0 0 0 0 0 0 0 0 0 0 0 0 0 0 2 5 7 9 11 13 14 15 15 12 13 18 25 26 24 24 24 21 17 13 12 13 12 9 6 4 3 4 4
0 0 0 0 0 0 0 0 0 0 0 0 0 0 0 2 5 8 11 13 15 16 16 14 11 11 17 25 26 23 22 22 20 15 12 11 12 11 8 5 4 4 4 3
0 0 0 0 0 0 0 0 0 0 0 0 0 0 0 1 3 8 12 16 17 18 19 16 12 10 15 23 26 23 21 20 18 14 12 12 11 8 6 4 4 4 4 3
0 0 0 0 0 0 0 0 0 0 0 0 0 0 0 1 3 7 14 18 17 18 22 20 15 12 15 21 24 24 22 20 18 16 15 14 11 8 5 4 4 4 5 5
0 0 0 0 0 0 0 0 0 0 0 0 1 1 2 3 5 8 14 17 18 20 23 22 19 17 19 21 24 26 25 22 20 20 19 16 13 9 6 4 5 6 6 6
0 0 0 0 0 0 0 0 0 0 0 1 3 3 4 5 7 9 13 17 21 24 25 23 21 21 22 24 26 29 31 28 25 24 22 19 16 12 9 7 8 8 8 8
0 0 0 0 0 1 1 1 1 1 2 3 5 5 5 7 8 11 15 19 23 27 28 24 23 23 25 27 29 33 37 35 31 28 26 23 20 16 13 12 12 11 11 10
0 0 0 0 1 2 2 2 3 3 4 4 6 7 9 12 14 14 17 21 25 28 29 28 27 27 29 31 31 35 41 40 35 32 29 26 23 20 17 16 15 14 13 12
0 0 0 0 1 2 3 3 4 6 7 8 11 14 18 21 22 20 19 22 26 27 29 30 32 32 33 33 33 36 41 41 38 34 30 27 25 23 20 17 15 14 12 12
0 0 0 0 0 1 1 3 5 8 12 16 20 22 25 28 28 25 23 24 25 26 29 32 33 34 34 34 34 36 40 43 42 37 32 29 29 29 25 18 14 11 11 10
0 0 0 0 0 0 1 3 7 11 17 22 26 28 28 29 30 27 25 25 25 26 30 33 33 32 33 33 34 38 41 44 44 40 34 32 33 34 30 22 15 12 11 8
0 0 0 0 0 0 2 5 8 14 20 24 27 29 30 29 27 25 25 26 26 27 30 33 33 32 31 32 35 40 43 44 43 40 38 37 37 37 33 26 19 16 13 11
0 0 0 0 0 1 3 7 11 15 21 23 23 26 29 28 24 23 25 26 26 27 29 31 32 30 30 32 35 39 42 42 41 39 39 39 39 37 33 29 24 19 15 14
1 1 1 0 1 3 5 9 13 17 20 21 19 22 27 29 27 27 27 26 25 26 27 27 28 28 30 32 35 37 39 39 39 37 36 35 36 36 34 31 28 22 18 16
0 1 3 3 4 6 8 10 14 19 21 20 19 22 27 31 31 30 29 26 25 25 24 23 24 26 30 33 34 35 37 37 37 36 34 30 30 32 33 32 30 25 20 17
2 4 7 9 9 10 12 14 15 19 22 22 22 25 28 32 33 32 30 28 26 25 23 21 21 24 29 32 32 32 34 35 35 35 32 28 26 28 31 31 29 26 21 17
7 8 9 10 10 12 14 15 16 17 19 21 23 26 30 33 35 34 33 32 30 28 26 23 21 23 26 29 29 28 29 30 31 31 29 26 24 25 27 26 24 21 16 13
10 11 10 8 9 12 14 15 15 16 18 19 22 26 30 34 36 37 36 36 34 31 29 26 23 22 24 27 27 24 25 28 30 29 26 24 23 22 23 23 19 14 11 9
Wind_Speed
2 3 3 7 7 7 7 5 4 4 3 3 4 8 11 11 10 10 9 10 10 11 10 10 11 11 9 7 7 7 6 5 4 3 2 2 1 0 0 1 2 2 2 2
4 4 9 6 4 5 5 5 4 2 4 4 4 5 8 10 12 13 13 12 11 9 9 10 10 10 9 9 8 7 6 5 5 3 3 2 2 1 1 1 1 2 2 2
7 9 5 4 4 4 4 7 6 4 2 3 4 1 4 5 5 7 10 11 12 14 14 13 12 11 10 10 9 8 7 6 5 4 3 2 2 2 1 1 1 1 2 2
6 7 5 5 7 6 5 7 8 8 5 1 3 2 5 5 5 7 10 11 13 13 12 12 12 12 12 10 9 8 7 6 5 5 4 4 3 2 2 2 1 1 1 2
6 4 4 6 8 6 6 6 5 7 5 2 1 3 6 3 6 9 11 13 13 14 15 14 13 13 12 11 9 8 7 6 6 5 5 5 3 3 2 2 2 1 1 1
7 5 4 7 5 5 4 4 4 5 5 1 4 4 5 5 10 8 9 12 13 13 14 12 11 10 9 9 9 8 8 6 6 6 5 6 5 5 4 3 2 1 1 1
6 7 5 3 1 2 5 7 4 4 3 4 3 2 8 9 8 9 10 11 12 12 13 12 12 12 11 11 10 9 9 7 6 6 6 6 6 5 5 4 3 3 1 1
3 8 6 4 6 6 4 10 9 5 5 3 2 4 8 8 6 6 7 8 9 10 12 13 14 13 13 12 11 10 10 8 7 6 6 5 5 4 3 3 3 3 2 2
5 7 7 5 5 8 4 4 9 8 3 2 3 5 7 2 2 4 5 6 8 9 11 13 13 13 12 12 12 11 11 9 8 7 6 5 5 4 4 3 3 2 2 2
7 4 6 5 2 1 6 7 6 6 5 2 2 3 5 4 3 5 7 7 8 10 11 11 12 12 12 12 11 10 10 10 8 7 7 6 5 5 4 4 4 3 2 2
5 4 6 3 2 4 1 3 5 5 6 7 3 7 8 9 8 8 8 8 8 10 11 11 11 11 11 10 11 10 10 9 8 7 6 6 5 5 5 4 4 3 3 3
3 6 3 7 7 5 6 6 7 5 3 5 5 8 5 6 6 7 7 7 7 8 9 9 10 10 10 11 10 10 10 9 9 8 7 6 6 5 5 4 4 4 3 3
4 6 1 7 8 5 0 2 4 6 5 4 5 6 2 3 3 5 7 7 6 6 7 7 8 10 11 11 11 10 10 9 8 8 7 6 6 6 5 5 4 4 4 3
6 5 7 8 7 4 4 5 2 6 4 4 6 5 3 4 5 5 6 7 6 6 6 6 7 8 9 9 10 10 9 8 8 8 8 7 7 6 6 5 4 4 4 4
6 4 3 5 6 3 4 5 4 4 8 8 8 7 9 9 9 8 7 7 6 6 6 6 7 7 7 7 8 9 9 8 9 8 8 7 6 6 6 5 5 4 4 5
4 3 1 3 3 3 4 5 4 2 4 5 5 4 6 5 4 6 8 9 9 7 7 7 7 7 7 8 8 8 8 8 8 8 8 7 6 6 6 6 5 5 4 4
2 4 3 3 4 3 4 5 3 2 2 6 6 6 5 6 7 8 8 8 9 8 7 7 7 7 8 8 8 8 8 8 8 8 7 7 7 7 6 6 5 5 4 4
5 4 4 1 2 4 8 4 2 3 1 2 4 4 8 8 7 6 6 7 7 6 6 6 6 6 6 6 6 7 7 7 8 7 7 7 7 7 6 6 6 5 4 4
7 7 4 3 2 4 6 4 1 2 2 1 5 6 7 8 8 4 2 5 6 7 6 6 5 6 6 6 7 8 7 7 6 7 7 7 7 8 7 7 6 5 4 4
4 6 6 3 3 5 6 5 3 4 2 3 4 8 7 6 5 3 2 4 4 5 5 5 5 5 5 5 7 8 8 7 7 7 7 6 7 7 8 7 6 4 4 4
3 3 4 4 3 6 6 6 3 3 5 3 3 7 6 4 5 5 4 5 5 5 6 7 6 5 4 5 7 7 7 7 6 6 6 5 5 6 6 6 5 5 5 4
5 4 4 4 3 7 5 3 2 4 2 1 3 5 6 5 4 4 5 5 5 5 6 6 6 4 3 5 6 6 5 5 5 6 6 6 5 5 5 6 5 5 6 5
3 6 6 6 7 5 1 2 2 3 3 2 3 4 6 6 4 3 3 5 5 6 6 5 5 4 3 3 5 5 3 4 5 5 5 4 4 4 5 6 6 5 5 4
3 1 3 1 1 1 1 3 3 3 3 3 3 3 5 6 5 4 4 5 5 5 5 5 5 5 3 2 3 4 4 5 6 5 4 4 4 3 3 4 4 5 5 5
3 1 2 1 1 3 4 3 3 3 4 5 5 3 4 6 5 5 4 5 5 5 4 5 5 5 4 3 3 4 5 6 6 5 4 4 4 3 3 3 3 4 4 5
2 3 3 4 5 3 3 2 2 2 2 2 3 2 3 4 4 4 4 4 4 5 4 4 5 5 4 4 3 3 5 6 6 5 4 4 4 3 2 3 2 1 2 3
Wind_Direction
322 84 214 216 192 179 172 179 212 211 170 133 170 166 175 179 175 176 176 173 176 177 174 166 164 161 157 156 153 153 154 159 145 132 130 125 142 157 115 160 156 149 141 133
1 261 234 213 193 170 177 181 210 232 170 156 184 180 182 185 187 185 182 179 178 173 168 170 168 166 167 167 165 161 162 164 160 157 156 158 158 167 166 156 131 135 128 135
220 241 233 213 217 189 220 193 191 177 70 66 110 64 200 208 199 192 189 183 179 179 177 176 175 176 172 174 174 171 171 168 167 158 136 115 85 63 65 81 103 117 130 130
246 243 228 216 223 190 224 214 169 155 123 223 124 192 254 210 212 207 195 190 187 184 179 178 177 178 178 181 177 167 169 169 166 156 149 151 153 161 188 178 154 114 109 115
259 244 228 229 227 194 208 200 158 150 126 79 31 145 267 206 214 215 202 196 193 187 181 181 183 183 180 177 174 170 166 168 166 161 161 157 159 168 158 136 118 98 60 98
252 264 217 221 237 188 158 87 62 67 82 100 232 166 255 216 210 206 208 202 192 185 182 181 180 176 173 172 171 170 165 170 168 164 163 163 161 155 147 149 142 130 94 66
296 294 275 224 241 318 96 91 47 14 27 242 235 175 241 227 207 199 199 195 188 182 178 177 175 176 176 174 175 173 168 173 173 167 168 168 165 157 158 159 156 153 145 138
230 278 269 232 187 194 175 139 155 180 198 257 298 227 251 238 206 191 189 178 176 182 180 178 179 178 179 177 176 173 173 174 173 169 173 168 158 152 156 162 156 159 169 178
191 252 279 260 211 164 168 172 166 137 141 134 270 284 306 303 175 164 145 149 169 179 180 179 179 178 177 177 179 176 173 173 173 172 164 159 161 155 156 153 147 153 164 155
169 238 280 292 336 217 165 155 100 115 140 186 274 265 242 234 206 171 156 164 182 181 173 176 178 178 178 178 174 172 173 176 175 171 170 168 167 163 159 145 145 150 146 127
152 170 295 340 209 220 166 114 114 125 151 151 193 255 227 198 184 169 171 176 182 175 174 177 180 179 175 169 169 171 174 172 170 171 169 166 165 162 155 154 160 158 146 141
166 137 241 264 258 219 183 178 146 150 204 161 166 256 264 188 178 167 161 166 172 167 169 173 174 170 169 169 170 173 175 174 175 172 166 166 162 155 157 166 169 157 148 146
137 116 94 328 334 346 259 184 151 134 126 151 161 254 306 127 130 162 157 163 160 148 151 155 161 169 173 173 172 174 175 175 171 164 163 164 165 163 169 174 169 156 148 143
123 115 160 198 220 248 277 275 184 129 148 183 201 209 248 173 163 172 156 149 147 142 147 151 156 167 173 173 173 171 172 169 164 161 163 169 174 174 174 165 158 158 149 141
100 131 188 221 233 234 257 265 248 191 181 178 204 193 208 200 184 172 149 135 125 129 139 155 162 161 165 164 166 168 168 168 166 165 170 176 173 166 160 157 157 153 148 147
80 128 114 299 292 300 298 287 267 220 182 171 161 210 220 187 148 143 147 151 149 152 163 161 161 162 165 168 168 165 166 168 164 167 174 170 163 161 160 159 154 150 149 146
90 114 109 263 299 14 284 257 226 206 187 157 180 212 158 132 145 159 159 156 154 165 167 164 166 172 174 173 167 165 165 158 159 165 166 162 161 160 162 160 153 157 159 148
139 109 124 152 50 221 244 271 204 138 76 159 159 162 156 151 146 139 143 148 149 156 159 162 165 162 163 161 159 155 151 156 162 165 167 164 161 161 158 154 159 162 151 151
155 139 122 122 167 271 291 311 340 122 350 3 134 129 123 114 84 56 104 140 154 154 154 156 158 153 154 157 155 148 152 161 165 167 170 170 167 163 161 164 166 161 152 154
94 117 124 132 157 223 251 291 303 96 351 328 134 139 137 117 122 210 184 131 127 130 131 130 129 123 137 154 151 150 157 163 177 178 172 167 166 167 170 170 165 158 152 153
60 72 138 164 198 252 264 295 21 129 224 275 126 141 143 150 177 178 145 130 130 126 124 125 126 127 146 153 149 153 161 177 179 162 151 152 160 167 167 161 155 150 148 143
166 159 180 156 181 246 290 20 138 204 212 168 123 134 127 127 123 128 131 135 129 120 117 122 122 126 140 142 145 151 166 169 150 146 148 153 157 165 161 154 153 152 151 151
180 185 181 180 204 229 267 151 186 132 117 98 101 132 129 123 135 149 156 149 141 134 129 125 123 116 113 127 135 141 155 140 135 137 145 150 152 154 154 158 160 159 160 162
296 23 109 97 269 289 32 59 54 77 82 81 96 124 132 132 143 157 166 155 151 142 136 128 124 122 120 123 131 143 140 134 130 135 141 144 147 146 148 156 160 166 173 175
265 359 79 108 285 15 13 19 24 44 49 59 52 71 110 134 151 155 153 152 153 145 142 140 140 142 147 137 131 141 143 138 134 139 146 149 146 152 153 152 164 177 185 184
247 176 158 215 221 185 237 292 12 31 32 74 73 57 64 119 136 138 146 152 149 147 141 139 137 141 146 140 136 149 155 147 143 147 154 154 148 148 154 147 123 63 172 180